Flughafen Dortmund

Aus VATSIM Germany
(Weitergeleitet von EDLW)

Dies ist die bestätigte sowie die neueste Version dieser Seite.
Wechseln zu:Navigation, Suche
UnderCon icon.svg.pngDieser Artikel ist noch im Aufbau. Der Artikel kann daher unvollständig sein oder Fehler enthalten!


Dortmund Airport
ICAO / IATA EDLW / DTM
Koordinaten N51°31′6″  E007°36′44″
Höhe 130 m / 425 ft
Wetter EDLW 010320Z AUTO 23019KT 9999 // OVC013/// 08/07 Q0998
Pisten
Platzfrequenzen
Nur für Flugsimulationszwecke!



Informationen für Piloten und Lotsen
Pilotenbriefing

Standard Operating Procedures (SOP)

Letters of Agreement (LoAs)

Airport Charts


Vorlage:Navigationsleiste Flughäfen EDLL